This is the latest recevied weather packets stored in our database for station/object VK4AB-13. If no packets are shown the sender has not sent any weather packets the latest 10 day(s).
| Time | Temp. | Humidity | Pressure | Rain* | Wind** | Luminosity | Snow |
|---|---|---|---|---|---|---|---|
| 1778130823 | 26.11° C | 34% | 1013 hPa | 0 mm | - | 418 W/m² | - |
| 1778130523 | 26.11° C | 35% | 1013.1 hPa | 0 mm | - | 207 W/m² | - |
| 1778130223 | 26.11° C | 35% | 1013 hPa | 0 mm | - | 202 W/m² | - |
| 1778129923 | 26.11° C | 35% | 1013 hPa | 0 mm | - | 313 W/m² | - |
| 1778129623 | 26.11° C | 36% | 1013 hPa | 0 mm | - | 200 W/m² | - |
| 1778129323 | 26.11° C | 36% | 1013 hPa | 0 mm | - | 276 W/m² | - |
| 1778129023 | 26.11° C | 37% | 1013 hPa | 0 mm | - | 174 W/m² | - |
| 1778128723 | 26.11° C | 36% | 1013 hPa | 0 mm | - | 181 W/m² | - |
| 1778128423 | 26.11° C | 37% | 1013.1 hPa | 0 mm | - | 178 W/m² | - |
| 1778128123 | 26.11° C | 37% | 1013.1 hPa | 0 mm | - | 401 W/m² | - |
| 1778127823 | 26.11° C | 37% | 1013.2 hPa | 0 mm | - | 290 W/m² | - |
| 1778127523 | 26.11° C | 37% | 1013.2 hPa | 0 mm | - | 236 W/m² | - |
| 1778127223 | 26.67° C | 38% | 1013.3 hPa | 0 mm | - | 271 W/m² | - |
| 1778126924 | 26.67° C | 39% | 1013.3 hPa | 0 mm | - | 360 W/m² | - |
| 1778126623 | 26.67° C | 38% | 1013.3 hPa | 0 mm | - | 341 W/m² | - |
| 1778126323 | 26.67° C | 38% | 1013.4 hPa | 0 mm | - | 287 W/m² | - |
| 1778126023 | 26.67° C | 39% | 1013.3 hPa | 0 mm | - | 380 W/m² | - |
| 1778125723 | 26.67° C | 39% | 1013.3 hPa | 0 mm | - | 304 W/m² | - |
| 1778125423 | 26.67° C | 40% | 1013.1 hPa | 0 mm | - | 404 W/m² | - |
| 1778125123 | 26.67° C | 41% | 1013.1 hPa | 0 mm | - | 311 W/m² | - |
| 1778125083 | 26.67° C | 40% | 1013.1 hPa | 0 mm | - | 410 W/m² | - |
| 1778124823 | 26.67° C | 40% | 1013.1 hPa | 0 mm | - | 410 W/m² | - |
| 1778124523 | 26.11° C | 42% | 1013.2 hPa | 0 mm | - | 339 W/m² | - |
| 1778124223 | 26.11° C | 41% | 1013.2 hPa | 0 mm | - | 401 W/m² | - |
| 1778123923 | 26.11° C | 42% | 1013.4 hPa | 0 mm | - | 369 W/m² | - |
* Rain latest hour (hover to see other rain measurements)
** Current wind speed in m/s (hover to see current wind gust speed)